Weather History for Jackson, TN

Change the Weather History Date:

Tuesday, May 7, 2013

  Actual Average Record
Temperature  
Mean Temperature 62 °F 66 °F  
Max Temperature 74 °F 78 °F 93 °F (1952)
Min Temperature 50 °F 55 °F 37 °F (1989)
Degree Days  
Heating Degree Days 3 2  
Month to date heating degree days 50 18  
Since 1 July heating degree days 3634 3544  
Cooling Degree Days 0 3  
Month to date cooling degree days 5 21  
Year to date cooling degree days 61 80  
Growing Degree Days 12 (Base 50)    
Moisture  
Dew Point 54 °F    
Average Humidity 75    
Maximum Humidity 100    
Minimum Humidity 49    
Precipitation  
Precipitation 0.00 in 0.19 in 2.23 in (1978)
Month to date precipitation 1.73 1.33  
Year to date precipitation 28.12 19.18  
Snow  
Snow 0.00 in 0.00 in - ()
Month to date snowfall 0.0 0.0  
Since 1 July snowfall 1.4 4.6  
Snow Depth 0.00 in    
Sea Level Pressure  
Sea Level Pressure 29.98 in    
Wind  
Wind Speed 3 mph (NW)    
Max Wind Speed 13 mph    
Max Gust Speed 17 mph    
Visibility 8 miles    
Events      
T = Trace of Precipitation, MM = Missing Value Source: NWS Daily Summary

Daily Weather History Graph

Daily Weather History Graph

Search for Another Location

Airport:

Trip Planner

Search our weather history database for the weather conditions in past years. The results will help you decide how hot, cold, wet, or windy it might be!

Date:

Astronomy

May. 07, 2013 Rise Set
Actual Time 5:57 AM CDT 7:47 PM CDT
Civil Twilight 5:29 AM CDT 8:15 PM CDT
Nautical Twilight 4:56 AM CDT 8:48 PM CDT
Astronomical Twilight 4:20 AM CDT 9:24 PM CDT
Moon 4:27 AM CDT (5/7) 5:50 PM CDT (5/7)
Length of Visible Light 14h 45m
Length of Day
13h 49m
Waning Crescent, 5% of the Moon is Illuminated
May 7
Waning Crescent
May 9
New
May 17
First Quarter
May 24
Full
May 31
Last Quarter

Hourly Weather History & Observations

Time (CDT) Temp. Dew Point Humidity Pressure Visibility Wind Dir Wind Speed Gust Speed Precip Events Conditions
12:53 AM 55.0 °F 53.1 °F 93% 29.94 in 10.0 mi Calm Calm - N/A   Partly Cloudy
1:43 AM 51.8 °F 51.8 °F 100% 29.94 in 7.0 mi West 3.5 mph - N/A   Mostly Cloudy
1:53 AM 54.0 °F 53.1 °F 97% 29.94 in 10.0 mi Calm Calm - N/A   Overcast
3:53 AM 55.9 °F 54.0 °F 93% 29.94 in 10.0 mi NNW 3.5 mph - N/A   Scattered Clouds
4:35 AM 53.6 °F 53.6 °F 100% 29.94 in 5.0 mi Calm Calm - N/A   Mostly Cloudy
4:53 AM 55.0 °F 54.0 °F 96% 29.94 in 7.0 mi NNW 3.5 mph - N/A   Overcast
5:15 AM 53.6 °F 53.6 °F 100% 29.94 in 5.0 mi Calm Calm - N/A   Scattered Clouds
5:31 AM 51.8 °F 51.8 °F 100% 29.95 in 1.8 mi Calm Calm - N/A   Partly Cloudy
5:35 AM 51.8 °F 50.0 °F 94% 29.95 in 0.8 mi Calm Calm - N/A   Mist
5:42 AM 51.8 °F 50.0 °F 94% 29.95 in 1.2 mi Calm Calm - N/A   Scattered Clouds
5:48 AM 50.0 °F 48.2 °F 94% 29.96 in 0.8 mi Calm Calm - N/A   Mostly Cloudy
5:49 AM 50.0 °F 48.9 °F 96% 29.95 in 0.8 mi Calm Calm - N/A   Mostly Cloudy
6:23 AM 53.6 °F 53.6 °F 100% 29.97 in 2.0 mi Calm Calm - N/A   Overcast
6:32 AM 55.4 °F 53.6 °F 94% 29.98 in 5.0 mi Calm Calm - N/A   Overcast
6:53 AM 55.9 °F 55.0 °F 97% 29.98 in 5.0 mi Calm Calm - N/A   Overcast
7:38 AM 57.2 °F 55.4 °F 94% 29.99 in 6.0 mi NNW 4.6 mph - N/A   Overcast
7:53 AM 57.9 °F 55.0 °F 90% 29.99 in 9.0 mi North 3.5 mph - N/A   Overcast
8:53 AM 59.0 °F 55.0 °F 87% 30.01 in 10.0 mi NE 4.6 mph - N/A   Overcast
9:53 AM 60.1 °F 55.0 °F 83% 30.01 in 10.0 mi Calm Calm - N/A   Mostly Cloudy
10:40 AM 62.6 °F 55.4 °F 77% 30.02 in 10.0 mi Calm Calm - N/A   Mostly Cloudy
10:53 AM 64.9 °F 55.9 °F 73% 30.02 in 10.0 mi SSW 3.5 mph - N/A   Mostly Cloudy
11:18 AM 64.4 °F 55.4 °F 73% 30.02 in 10.0 mi West 3.5 mph - N/A   Overcast
11:53 AM 68.0 °F 57.0 °F 68% 30.01 in 10.0 mi North 5.8 mph - N/A   Mostly Cloudy
12:53 PM 70.0 °F 57.0 °F 63% 30.01 in 10.0 mi NNW 6.9 mph - N/A   Scattered Clouds
1:53 PM 72.0 °F 57.0 °F 59% 30.00 in 10.0 mi Variable 4.6 mph - N/A   Mostly Cloudy
2:53 PM 73.0 °F 55.9 °F 55% 29.99 in 10.0 mi North 9.2 mph - N/A   Scattered Clouds
3:53 PM 72.0 °F 54.0 °F 53% 29.98 in 10.0 mi WNW 6.9 mph - N/A   Scattered Clouds
4:53 PM 71.1 °F 54.0 °F 55% 29.98 in 10.0 mi NNW 3.5 mph - N/A   Overcast
5:53 PM 73.0 °F 53.1 °F 49% 29.98 in 10.0 mi NNW 6.9 mph - N/A   Mostly Cloudy
6:53 PM 71.1 °F 55.0 °F 57% 29.98 in 10.0 mi NNW 4.6 mph - N/A   Partly Cloudy
7:53 PM 64.0 °F 55.0 °F 73% 29.99 in 10.0 mi Calm Calm - N/A   Clear
8:53 PM 59.0 °F 55.0 °F 87% 30.00 in 10.0 mi Calm Calm - N/A   Clear
9:53 PM 57.0 °F 55.0 °F 93% 30.02 in 10.0 mi Calm Calm - N/A   Clear
10:53 PM 55.9 °F 54.0 °F 93% 30.02 in 10.0 mi SSW 3.5 mph - N/A   Clear
11:53 PM 54.0 °F 53.1 °F 97% 30.01 in 9.0 mi Calm Calm - N/A   Clear